Regional Weather Roundup
Issued by NWS

Home | Current Version | Previous Version | Graphics & Text | Print | Product List | Glossary On
Versions: 1 2 3 4 5 6 7 8 9 10 11 12 13 14 15 16 17 18 19 20 21 22 23 24 25 26 27 28 29 30 31 32 33 34 35 36 37 38 39 40 41 42 43 44 45 46 47 48 49 50
136
ASUS43 KOAX 111902
RWRNE

WEATHER ROUNDUP FOR NEBRASKA
NATIONAL WEATHER SERVICE OMAHA NE
100 PM CST MON DEC 11 2017

NOTES: SATELLITE DATA IS BEING USED TO AUGMENT CLOUD COVER ABOVE
       12000 FEET.
       "FAIR" INDICATES FEW OR NO CLOUDS BELOW 12,000 FEET WITH NO
       SIGNIFICANT WEATHER AND/OR OBSTRUCTIONS TO VISIBILITY.


NEZ001>004-019>022-054>056-112000-
NEBRASKA PANHANDLE

CITY           SKY/WX    TMP DP  RH WIND       PRES   REMARKS
SCOTTSBLUFF    SUNNY     52  13  21 NW28G39   30.34F
ALLIANCE       SUNNY     49  12  22 NW32G40   30.27F
CHADRON        CLOUDY    47  16  29 NW22G32   30.30F
GORDON         MOCLDY    44  23  44 N25G36    30.27R
KIMBALL        SUNNY     48  13  24 NW29G36   30.34F
SIDNEY         SUNNY     51  12  21 NW35G47   30.29F
$$

NEZ057>060-069>072-079>082-112000-
SOUTHWEST NEBRASKA

CITY           SKY/WX    TMP DP  RH WIND       PRES   REMARKS
NORTH PLATTE   SUNNY     50  22  33 NW33G41   30.21S
IMPERIAL       SUNNY     52  13  21 NW28G38   30.22F
LEXINGTON      SUNNY     53  22  30 NW38G46   30.17R
MCCOOK         SUNNY     56  10  16 N37G47    30.19F
OGALLALA       SUNNY     53  14  21 NW29      30.23R
$$

NEZ005>010-023>029-035>040-094-112000-
NORTH CENTRAL NEBRASKA

CITY           SKY/WX    TMP DP  RH WIND       PRES   REMARKS
VALENTINE      CLOUDY    42  28  57 NW30G45   30.22R
AINSWORTH      CLOUDY    39  31  73 N29G37    30.20R WCI  27
BROKEN BOW     CLOUDY    48  26  42 NW35G44   30.17R
O`NEILL        CLOUDY    41  31  67 NW30G41   30.14R
ORD            CLOUDY    44  28  53 NW32G47   30.14R
THEDFORD       MOSUNNY   45  26  47 N26G39    30.21R
$$

NEZ041-046>049-061>064-073>077-083>087-112000-
SOUTH CENTRAL NEBRASKA

CITY           SKY/WX    TMP DP  RH WIND       PRES   REMARKS
GRAND ISLAND   CLOUDY    46  27  47 NW29G40   30.13R
AURORA         CLOUDY    47  27  45 NW33G43   30.11S
HASTINGS       MOSUNNY   48  25  40 N32G47    30.14R
HEBRON         MOSUNNY   51  26  37 NW23G40   30.10R
HOLDREGE       SUNNY     52  25  34 N26G35    30.15S
KEARNEY        PTSUNNY   49  25  39 N28G39    30.15R
YORK           CLOUDY    48  28  46 NW25G37   30.08R
$$

NEZ011>018-030>034-042>045-112000-
NORTHEAST NEBRASKA

CITY           SKY/WX    TMP DP  RH WIND       PRES   REMARKS
NORFOLK        CLOUDY    42  32  67 NW32G41   30.05R
ALBION         CLOUDY    45  30  56 NW35G46   30.08S
BLAIR          CLOUDY    47  33  59 NW31G43   29.98R
COLUMBUS       CLOUDY    45  30  55 NW25G38   30.08R
FREMONT        CLOUDY    46  32  57 NW29G36   30.03S
TEKAMAH        CLOUDY    47  31  53 NW29G44   30.00R
WAYNE          CLOUDY    43  31  62 NW22G39   30.03R
$$

NEZ050>053-065>068-078-088>093-112000-
SOUTHEAST NEBRASKA

CITY           SKY/WX    TMP DP  RH WIND       PRES   REMARKS
LINCOLN        CLOUDY    50  29  44 NW30G43   30.06R
OMAHA EPPLEY   CLOUDY    48  31  51 NW25G33   29.98R
BEATRICE       PTSUNNY   51  28  41 NW30G37   30.06R
FALLS CITY     MOSUNNY   52  28  39 NW26G44   29.99R
NEBRASKA CITY  CLOUDY    49  31  51 NW26G37   30.00R
PLATTSMOUTH    CLOUDY    47  32  55 NW28G45   29.99R
$$

NEZ044-045-051>053-067-112000-
OMAHA AREA

CITY           SKY/WX    TMP DP  RH WIND       PRES   REMARKS
OMAHA EPPLEY   CLOUDY    48  31  51 NW25G33   29.98R
BLAIR          CLOUDY    47  33  59 NW31G43   29.98R
FREMONT        CLOUDY    46  32  57 NW29G36   30.03S
MILLARD        CLOUDY    49  33  54 NW26G36   30.00R
OFFUTT AFB     CLOUDY    48  31  52 NW22G37   29.99R
PLATTSMOUTH    CLOUDY    47  32  55 NW28G45   29.99R
WAHOO          CLOUDY    48  30  50 NW32G45   30.02R
$$




USA.gov is the U.S. government's official web portal to all federal, state and local government web resources and services.